Location: Étang Rond
(42.7927°N, 1.0661°E)
Time: 23:22:14
(UTC+00:00)

Cosmos 2100 Rocket - Pass Details

Date: 08 November 2025
Orbit: 954 x 1000 km, 82.9° (Epoch: 13 December)

Event Time Altitude Azimuth Distance (km) Brightness Sun altitude
Rises 04:25:02 0° 352° (N) 3,642 6.9 -24.8°
Reaches altitude 10° 04:27:33 10° 353° (N) 2,692 6.2 -24.3°
Maximum altitude 04:33:43 88° 81° (E) 964 3.9 -23.2°
Drops below altitude 10° 04:39:52 10° 173° (S) 2,688 6.4 -22.0°
Sets 04:42:22 0° 174° (S) 3,636 7.1 -21.6°
